Weather Roundup
Issued by NWS Springfield, MO

Home | Current Version | Previous Version | Text Only | Print | Product List | Glossary On
Versions: 1 2 3 4 5 6 7 8 9 10 11 12 13 14 15 16 17 18 19 20 21 22 23 24 25 26 27 28 29 30 31 32 33 34 35 36 37 38 39 40 41 42 43 44 45 46 47 48 49 50
000
NZUS99 KSGF 280959
HRRSGF

HOURLY WEATHER
NATIONAL WEATHER SERVICE SPRINGFIELD MO
400 AM CST WED JAN 28 2015

......SGF CWA......

CITY           SKY/WX    TMP DP  RH WIND       PRES   REMARKS
SPRINGFIELD    CLEAR     42  33  70 SE24      30.07S
JOPLIN         CLEAR     48  29  47 S9        30.03F
WEST PLAINS    CLEAR     34  28  79 SE7       30.19S WCI  28
ROLLA          CLEAR     32  28  85 SE13      30.13S WCI  22
OSAGE BEACH    CLEAR     37  30  75 SE10      30.10F WCI  30

......SURROUNDING SGF CWA......

CITY           SKY/WX    TMP DP  RH WIND       PRES   REMARKS
CHANUTE        CLEAR     40  33  76 SE8       29.98F WCI  34
PARSONS        CLEAR     48  36  63 S6        30.00F
COFFEYVILLE    CLEAR     42  34  73 S6        30.00F
EMPORIA        CLEAR     40  33  76 S12       29.93F WCI  33
SILOAM SPRINGS CLEAR     48  28  46 S5        30.08F
HARRISON AR    CLEAR     39  33  79 SE14      30.13S WCI  31
NEAR YELLVILLE CLEAR     37  30  75 E6        30.17F WCI  33

......KANSAS AND MISSOURI......

CITY           SKY/WX    TMP DP  RH WIND       PRES   REMARKS
KANSAS CTY INT CLEAR     40  30  67 SE14      29.96F WCI  32
DOWNTOWN KC    CLEAR     44  29  55 SE9       29.98F
COLUMBIA       CLEAR     31  28  89 SE12      30.12F WCI  22
SEDALIA        CLEAR     36  29  75 SE12      30.06F WCI  28
ST JOSEPH      CLEAR     40  30  67 SE10      29.97F WCI  33
ST LOUIS       CLEAR     30  25  81 SE10      30.23F WCI  21
SPIRIT OF STL  CLEAR     29  25  85 E5        30.22F WCI  24
KIRKSVILLE     CLEAR     28  27  96 SE12      30.12F FOG     WCI  18
WICHITA        CLEAR     43  34  70 S6        29.93F
TOPEKA         CLEAR     39  28  64 SE7       29.94F WCI  34
OLATHE         CLEAR     40  30  67 S13       29.97F WCI  32

......TENNESSEE......

CITY           SKY/WX    TMP DP  RH WIND       PRES   REMARKS
MEMPHIS        CLEAR     38  29  70 SE9       30.23S WCI  31
NASHVILLE      CLOUDY    33  28  81 NE6       30.27R WCI  28

......ARKANSAS.......

CITY           SKY/WX    TMP DP  RH WIND       PRES   REMARKS
FAYETTEVILLE   CLEAR     33  29  85 CALM      30.09F
FT SMITH       CLEAR     43  35  73 E10       30.13S
LITTLE ROCK    CLEAR     38  34  85 CALM      30.21S

......OKLAHOMA.......

CITY           SKY/WX    TMP DP  RH WIND       PRES   REMARKS
TULSA          CLEAR     52  37  56 S13       30.01F
PONCA CITY     CLEAR     53  39  59 S5        29.97F
MCALESTER      PTCLDY    53  38  56 S5        30.07F
OKLAHOMA CITY  CLEAR     47  36  65 SE9       30.01F

......IOWA............

CITY           SKY/WX    TMP DP  RH WIND       PRES   REMARKS
DES MOINES     CLOUDY    31  27  85 SE12      30.07F FOG     WCI  22
QUAD CITIES    CLOUDY    29  24  82 SE8       30.20F WCI  21

......ILLINOIS........

CITY           SKY/WX    TMP DP  RH WIND       PRES   REMARKS
QUINCY         CLEAR     28  24  85 SE13      30.18F FOG     WCI  17
CHICAGO        MOCLDY    23  19  85 CALM      30.26S




USA.gov is the U.S. government's official web portal to all federal, state and local government web resources and services.